﻿#観測日時,平均風速,平均風向,最大風速,最大風速発生風向,最大瞬間風速,最大瞬間風速発生風向
#(年月日),(m/s)   ,(16方位),(m/s)   ,(16方位)        ,(m/s)       ,(16方位)            
2020/2/22 0:01,2.6,2,2.6,2,3,2
2020/2/22 0:02,2.6,2,2.6,2,4.5,2
2020/2/22 0:03,2.7,2,2.7,2,4.8,2
2020/2/22 0:04,2.7,2,2.7,2,5.5,1
2020/2/22 0:05,2.8,2,2.8,2,4.4,2
2020/2/22 0:06,2.8,2,2.8,2,4.3,3
2020/2/22 0:07,2.8,2,2.8,2,3.9,1
2020/2/22 0:08,2.7,2,2.9,2,2.7,1
2020/2/22 0:09,2.5,2,2.7,2,2.5,3
2020/2/22 0:10,2.6,2,2.6,2,3.8,3
2020/2/22 0:11,2.6,2,2.6,2,3.7,3
2020/2/22 0:12,2.6,2,2.7,2,3.8,3
2020/2/22 0:13,2.7,2,2.7,2,4.4,3
2020/2/22 0:14,2.7,2,2.7,2,5.5,3
2020/2/22 0:15,2.6,2,2.7,2,4.4,3
2020/2/22 0:16,2.7,2,2.7,2,5.4,2
2020/2/22 0:17,2.8,3,2.8,2,5.6,2
2020/2/22 0:18,3,3,3,3,5.1,3
2020/2/22 0:19,3.1,3,3.1,3,4.8,3
2020/2/22 0:20,3.2,3,3.2,3,5.1,3
2020/2/22 0:21,3.5,3,3.5,3,5.7,3
2020/2/22 0:22,3.6,3,3.6,3,5.1,4
2020/2/22 0:23,3.5,3,3.6,3,4.3,3
2020/2/22 0:24,3.5,3,3.6,3,4.7,3
2020/2/22 0:25,3.6,3,3.6,3,4.2,3
2020/2/22 0:26,3.5,3,3.6,3,3.8,3
2020/2/22 0:27,3.3,3,3.5,3,3.1,2
2020/2/22 0:28,3.2,3,3.3,3,4.2,1
2020/2/22 0:29,3.1,3,3.2,3,4.7,3
2020/2/22 0:30,3.1,3,3.1,3,4.5,3
2020/2/22 0:31,2.9,3,3.1,3,4.4,3
2020/2/22 0:32,2.8,3,2.9,3,3.6,4
2020/2/22 0:33,2.7,3,2.8,3,3.1,4
2020/2/22 0:34,2.6,3,2.7,3,3.7,3
2020/2/22 0:35,2.5,3,2.6,3,5,3
2020/2/22 0:36,2.4,3,2.5,3,2.9,3
2020/2/22 0:37,2.5,3,2.5,3,3.7,3
2020/2/22 0:38,2.5,3,2.6,3,3.1,2
2020/2/22 0:39,2.3,3,2.4,3,3.6,1
2020/2/22 0:40,2.3,3,2.3,3,4.7,2
2020/2/22 0:41,2.2,2,2.3,3,3.6,2
2020/2/22 0:42,2.3,2,2.3,3,4.4,3
2020/2/22 0:43,2.4,2,2.4,3,4.1,3
2020/2/22 0:44,2.4,2,2.4,3,3.6,3
2020/2/22 0:45,2.3,2,2.4,3,3.7,3
2020/2/22 0:46,2.4,2,2.4,3,4.2,2
2020/2/22 0:47,2.4,2,2.5,3,4.2,2
2020/2/22 0:48,2.5,2,2.5,2,3.6,2
2020/2/22 0:49,2.6,2,2.6,2,4.4,3
2020/2/22 0:50,2.4,2,2.6,2,4.7,3
2020/2/22 0:51,2.5,2,2.5,2,3.8,2
2020/2/22 0:52,2.4,2,2.5,2,3.3,2
2020/2/22 0:53,2.4,2,2.4,2,4.7,3
2020/2/22 0:54,2.3,2,2.3,2,3.8,2
2020/2/22 0:55,2.3,2,2.3,2,4.8,3
2020/2/22 0:56,2.3,2,2.3,2,4.5,3
2020/2/22 0:57,2.4,2,2.4,2,5.2,3
2020/2/22 0:58,2.4,2,2.4,2,4.3,2
2020/2/22 0:59,2.5,2,2.5,2,4.9,3
2020/2/22 1:00,2.7,2,2.7,2,4.1,3
2020/2/22 1:01,2.7,3,2.7,2,3.9,3
2020/2/22 1:02,2.7,3,2.7,2,3.3,4
2020/2/22 1:03,2.5,2,2.7,2,3.1,1
2020/2/22 1:04,2.6,3,2.6,2,3.5,3
2020/2/22 1:05,2.7,3,2.7,2,5.2,3
2020/2/22 1:06,2.7,3,2.8,3,4.7,3
2020/2/22 1:07,2.7,3,2.8,3,3.7,3
2020/2/22 1:08,2.5,3,2.7,3,3,2
2020/2/22 1:09,2.4,3,2.5,3,3.3,3
2020/2/22 1:10,2.3,3,2.4,3,2.9,3
2020/2/22 1:11,2.2,3,2.3,3,3,2
2020/2/22 1:12,2.2,3,2.2,3,3.6,3
2020/2/22 1:13,2.3,3,2.3,3,2.6,3
2020/2/22 1:14,2.4,3,2.4,3,5.1,4
2020/2/22 1:15,2.4,3,2.4,3,5,4
2020/2/22 1:16,2.3,3,2.4,3,4.2,3
2020/2/22 1:17,2.4,3,2.4,3,4.4,3
2020/2/22 1:18,2.6,3,2.6,3,5.1,3
2020/2/22 1:19,2.7,3,2.7,3,5.6,3
2020/2/22 1:20,2.8,3,2.8,3,4.8,2
2020/2/22 1:21,3,3,3,3,5.2,3
2020/2/22 1:22,3.1,3,3.1,3,4.1,4
2020/2/22 1:23,3.2,3,3.2,3,4.3,3
2020/2/22 1:24,3.1,3,3.2,3,3.9,3
2020/2/22 1:25,3,3,3.1,3,3.9,2
2020/2/22 1:26,3,3,3,3,3.5,4
2020/2/22 1:27,2.9,3,2.9,3,4.2,3
2020/2/22 1:28,2.8,3,2.9,3,4.1,3
2020/2/22 1:29,2.7,3,2.8,3,4.2,3
2020/2/22 1:30,2.6,3,2.7,3,3.5,3
2020/2/22 1:31,2.5,2,2.6,3,3.3,2
2020/2/22 1:32,2.4,2,2.4,3,5.1,3
2020/2/22 1:33,2.4,3,2.4,3,5,3
2020/2/22 1:34,2.5,3,2.5,3,5.4,3
2020/2/22 1:35,2.5,3,2.5,3,5,3
2020/2/22 1:36,2.5,3,2.5,3,3.1,4
2020/2/22 1:37,2.4,3,2.5,3,2.2,3
2020/2/22 1:38,2.3,3,2.4,3,2.7,3
2020/2/22 1:39,2.3,3,2.3,3,4.3,4
2020/2/22 1:40,2.3,3,2.3,3,3.6,3
2020/2/22 1:41,2.4,3,2.4,3,3.7,3
2020/2/22 1:42,2.4,3,2.5,3,4.4,3
2020/2/22 1:43,2.4,3,2.4,3,3.8,4
2020/2/22 1:44,2.4,3,2.4,3,3.7,4
2020/2/22 1:45,2.3,3,2.4,3,3.5,3
2020/2/22 1:46,2.3,3,2.3,3,3.3,3
2020/2/22 1:47,2.4,3,2.4,3,3.6,3
2020/2/22 1:48,2.5,3,2.5,3,3.7,3
2020/2/22 1:49,2.4,3,2.5,3,3.5,3
2020/2/22 1:50,2.4,3,2.5,3,3.7,5
2020/2/22 1:51,2.5,3,2.5,3,3.6,3
2020/2/22 1:52,2.5,3,2.6,3,3.8,3
2020/2/22 1:53,2.5,3,2.5,3,3.5,2
2020/2/22 1:54,2.6,3,2.6,3,4.8,3
2020/2/22 1:55,2.6,3,2.6,3,3,3
2020/2/22 1:56,2.7,3,2.7,3,6.2,3
2020/2/22 1:57,2.9,3,2.9,3,6.3,3
2020/2/22 1:58,2.9,3,2.9,3,4.2,3
2020/2/22 1:59,2.9,3,2.9,3,3.7,3
2020/2/22 2:00,3.1,3,3.1,3,7.4,3
2020/2/22 2:01,3.2,3,3.2,3,5.2,3
2020/2/22 2:02,3.2,3,3.2,3,4.2,2
2020/2/22 2:03,3.1,3,3.2,3,3,3
2020/2/22 2:04,3,3,3.1,3,4.2,2
2020/2/22 2:05,3,3,3,3,4.1,2
2020/2/22 2:06,3,3,3,3,4.9,3
2020/2/22 2:07,2.8,3,3,3,4.8,4
2020/2/22 2:08,2.8,3,2.8,3,5.4,2
2020/2/22 2:09,2.8,3,2.9,3,4.2,4
2020/2/22 2:10,2.6,3,2.8,3,2.9,3
2020/2/22 2:11,2.4,3,2.6,3,3,1
2020/2/22 2:12,2.3,2,2.3,3,3.5,3
2020/2/22 2:13,2.3,3,2.3,3,4.2,3
2020/2/22 2:14,2.3,3,2.3,3,3.2,3
2020/2/22 2:15,2.2,3,2.2,3,2.6,4
2020/2/22 2:16,2.1,3,2.2,3,2.5,4
2020/2/22 2:17,2,3,2.1,3,2.1,4
2020/2/22 2:18,1.9,3,2,3,2.6,3
2020/2/22 2:19,1.8,3,1.9,3,2.5,3
2020/2/22 2:20,1.8,3,1.9,3,2.1,4
2020/2/22 2:21,1.8,3,1.9,3,2.7,3
2020/2/22 2:22,1.8,3,1.8,2,2.5,2
2020/2/22 2:23,1.8,3,1.8,3,3.7,3
2020/2/22 2:24,1.8,3,1.8,3,2.6,1
2020/2/22 2:25,1.8,3,1.8,3,2.9,2
2020/2/22 2:26,1.7,3,1.8,3,2.9,2
2020/2/22 2:27,1.8,3,1.8,3,3.1,1
2020/2/22 2:28,1.9,3,1.9,3,3.8,2
2020/2/22 2:29,2,3,2,3,4.3,3
2020/2/22 2:30,2.2,3,2.2,3,3.9,3
2020/2/22 2:31,2.3,3,2.3,3,4.2,4
2020/2/22 2:32,2.5,3,2.5,3,3.7,3
2020/2/22 2:33,2.5,3,2.5,3,4.4,3
2020/2/22 2:34,2.6,3,2.6,3,4.1,4
2020/2/22 2:35,2.7,3,2.7,3,4.2,3
2020/2/22 2:36,3,3,3,3,4.9,4
2020/2/22 2:37,3.1,3,3.1,3,5.5,3
2020/2/22 2:38,3,3,3.1,3,3.7,2
2020/2/22 2:39,3,3,3,3,3.9,4
2020/2/22 2:40,2.9,3,3,3,3.5,3
2020/2/22 2:41,2.6,3,2.9,3,2.6,5
2020/2/22 2:42,2.5,4,2.6,3,2.9,5
2020/2/22 2:43,2.4,3,2.5,3,3,2
2020/2/22 2:44,2.4,3,2.4,3,3.6,3
2020/2/22 2:45,2.3,3,2.4,3,3.8,5
2020/2/22 2:46,2.2,3,2.3,3,3.5,4
2020/2/22 2:47,2.2,4,2.2,3,4.3,4
2020/2/22 2:48,2.4,4,2.4,3,4.8,3
2020/2/22 2:49,2.4,4,2.4,3,4.4,4
2020/2/22 2:50,2.5,4,2.5,3,4.1,4
2020/2/22 2:51,2.5,4,2.5,3,2.4,4
2020/2/22 2:52,2.5,3,2.5,4,3,3
2020/2/22 2:53,2.4,3,2.5,4,3.2,4
2020/2/22 2:54,2.4,3,2.4,4,3.6,3
2020/2/22 2:55,2.4,3,2.4,4,3.3,2
2020/2/22 2:56,2.3,3,2.4,4,2.7,3
2020/2/22 2:57,2.2,3,2.3,4,3,3
2020/2/22 2:58,2.1,3,2.1,4,3.5,3
2020/2/22 2:59,2.1,3,2.1,4,3.5,3
2020/2/22 3:00,2,3,2.1,4,3,5
2020/2/22 3:01,2.1,3,2.1,4,3.6,4
2020/2/22 3:02,2.1,3,2.1,3,4.2,4
2020/2/22 3:03,2.2,3,2.2,3,3.8,4
2020/2/22 3:04,2.2,3,2.2,3,3.9,4
2020/2/22 3:05,2.1,3,2.2,3,3,3
2020/2/22 3:06,2.2,3,2.2,3,3,3
2020/2/22 3:07,2.1,3,2.2,3,3.1,2
2020/2/22 3:08,2.1,3,2.1,3,2.5,2
2020/2/22 3:09,2,3,2,3,2.1,2
2020/2/22 3:10,1.9,3,1.9,3,2.1,2
2020/2/22 3:11,1.8,3,1.8,3,3.5,1
2020/2/22 3:12,1.7,3,1.7,3,2.4,3
2020/2/22 3:13,1.7,2,1.7,3,5.2,1
2020/2/22 3:14,1.8,2,1.8,3,4.7,3
2020/2/22 3:15,2,2,2,3,4.5,3
2020/2/22 3:16,2,2,2,3,3.9,3
2020/2/22 3:17,2,2,2,3,2.7,3
2020/2/22 3:18,2,3,2,3,2.6,1
2020/2/22 3:19,1.9,3,2,2,2.9,3
2020/2/22 3:20,2,3,2,2,3.8,3
2020/2/22 3:21,2.2,3,2.2,3,3.9,3
2020/2/22 3:22,2.3,3,2.3,3,5.2,3
2020/2/22 3:23,2.4,3,2.4,3,6.4,3
2020/2/22 3:24,2.5,3,2.5,3,4.4,3
2020/2/22 3:25,2.4,3,2.5,3,3.9,3
2020/2/22 3:26,2.5,3,2.5,3,4.2,3
2020/2/22 3:27,2.6,3,2.6,3,4.7,3
2020/2/22 3:28,2.9,3,2.9,3,4.8,3
2020/2/22 3:29,3,3,3,3,3.6,4
2020/2/22 3:30,3.1,3,3.1,3,4.2,3
2020/2/22 3:31,3,3,3.1,3,3.1,3
2020/2/22 3:32,3,3,3.1,3,3.5,3
2020/2/22 3:33,2.8,3,2.9,3,3,4
2020/2/22 3:34,2.7,3,2.7,3,3.9,3
2020/2/22 3:35,2.7,3,2.7,3,4.3,3
2020/2/22 3:36,2.6,3,2.7,3,3,3
2020/2/22 3:37,2.5,3,2.6,3,4.3,3
2020/2/22 3:38,2.6,3,2.6,3,4.7,3
2020/2/22 3:39,2.5,3,2.5,3,4.1,4
2020/2/22 3:40,2.5,3,2.5,3,4.3,3
2020/2/22 3:41,2.5,3,2.5,3,3.6,3
2020/2/22 3:42,2.6,3,2.6,3,3.7,2
2020/2/22 3:43,2.7,3,2.7,3,4.8,3
2020/2/22 3:44,2.7,3,2.7,3,4.1,2
2020/2/22 3:45,2.7,3,2.7,3,3.7,4
2020/2/22 3:46,2.7,3,2.7,3,3.7,3
2020/2/22 3:47,2.7,3,2.7,3,4.2,4
2020/2/22 3:48,2.6,3,2.7,3,3.9,3
2020/2/22 3:49,2.7,3,2.7,3,3.3,3
2020/2/22 3:50,2.6,2,2.7,3,4.7,2
2020/2/22 3:51,2.7,2,2.7,3,4.7,4
2020/2/22 3:52,2.8,2,2.8,2,5.7,2
2020/2/22 3:53,2.9,2,2.9,2,6.2,2
2020/2/22 3:54,3,3,3,3,4.9,3
2020/2/22 3:55,3,3,3,3,5,3
2020/2/22 3:56,3.1,3,3.1,3,5.1,3
2020/2/22 3:57,3.1,3,3.1,3,3.8,4
2020/2/22 3:58,3,3,3,3,3.9,2
2020/2/22 3:59,3,3,3,3,4.2,1
2020/2/22 4:00,3.1,3,3.1,3,4.8,3
2020/2/22 4:01,2.9,3,3.1,3,3.9,3
2020/2/22 4:02,2.8,3,2.9,3,5.1,3
2020/2/22 4:03,2.6,3,2.8,3,4.3,2
2020/2/22 4:04,2.7,3,2.7,3,5,3
2020/2/22 4:05,2.6,3,2.6,3,4.2,3
2020/2/22 4:06,2.6,3,2.6,3,4.4,3
2020/2/22 4:07,2.7,3,2.7,3,4.9,4
2020/2/22 4:08,2.8,3,2.8,3,4.5,3
2020/2/22 4:09,2.9,3,2.9,3,4.3,3
2020/2/22 4:10,3,3,3,3,6.4,3
2020/2/22 4:11,3.1,3,3.1,3,5.4,3
2020/2/22 4:12,3.2,3,3.3,3,4.5,4
2020/2/22 4:13,3.2,3,3.3,3,4.1,4
2020/2/22 4:14,3,3,3.2,3,2.4,1
2020/2/22 4:15,3.1,3,3.1,3,5.5,3
2020/2/22 4:16,3.1,3,3.1,3,5.1,3
2020/2/22 4:17,3,3,3.1,3,3.9,3
2020/2/22 4:18,2.9,3,3,3,3.6,4
2020/2/22 4:19,2.8,3,2.9,3,4.1,3
2020/2/22 4:20,2.7,3,2.8,3,4.5,4
2020/2/22 4:21,2.4,3,2.6,3,3,2
2020/2/22 4:22,2.5,3,2.5,3,4.8,3
2020/2/22 4:23,2.6,3,2.6,3,4.8,3
2020/2/22 4:24,2.7,3,2.7,3,3.6,3
2020/2/22 4:25,2.6,3,2.7,3,4.2,16
2020/2/22 4:26,2.6,3,2.6,3,4.4,2
2020/2/22 4:27,2.7,3,2.7,3,3.5,3
2020/2/22 4:28,2.7,3,2.7,3,3.6,4
2020/2/22 4:29,2.7,3,2.7,3,4.3,3
2020/2/22 4:30,2.6,3,2.7,3,3.1,4
2020/2/22 4:31,2.7,3,2.7,3,3.2,3
2020/2/22 4:32,2.5,3,2.7,3,3,4
2020/2/22 4:33,2.3,3,2.5,3,2.5,3
2020/2/22 4:34,2.2,3,2.3,3,3.1,2
2020/2/22 4:35,2.1,3,2.2,3,2.7,3
2020/2/22 4:36,2.1,3,2.1,3,3.6,3
2020/2/22 4:37,2.1,3,2.1,3,4.1,3
2020/2/22 4:38,2.1,3,2.1,3,3.6,4
2020/2/22 4:39,2.1,3,2.1,3,3.6,4
2020/2/22 4:40,2.1,3,2.1,3,3.6,3
2020/2/22 4:41,2.2,3,2.2,3,3.2,3
2020/2/22 4:42,2.3,3,2.3,3,3.2,3
2020/2/22 4:43,2.4,3,2.4,3,3.3,3
2020/2/22 4:44,2.4,3,2.4,3,3.8,3
2020/2/22 4:45,2.5,3,2.5,3,3.6,3
2020/2/22 4:46,2.5,3,2.5,3,3.6,4
2020/2/22 4:47,2.5,3,2.5,3,3.3,3
2020/2/22 4:48,2.4,3,2.4,3,3.8,3
2020/2/22 4:49,2.5,3,2.5,3,3.8,3
2020/2/22 4:50,2.4,3,2.5,3,3.7,3
2020/2/22 4:51,2.3,3,2.4,3,2.7,3
2020/2/22 4:52,2.2,3,2.3,3,2.9,3
2020/2/22 4:53,2.2,3,2.2,3,2.2,3
2020/2/22 4:54,2.2,3,2.2,3,3.9,3
2020/2/22 4:55,2.2,3,2.2,3,3.8,2
2020/2/22 4:56,2.1,3,2.2,3,3.3,3
2020/2/22 4:57,2.1,2,2.1,3,3.5,3
2020/2/22 4:58,2,3,2.1,3,3.2,1
2020/2/22 4:59,2,3,2,3,3.7,3
2020/2/22 5:00,2.2,3,2.2,3,4.1,4
2020/2/22 5:01,2.3,3,2.3,3,5.2,4
2020/2/22 5:02,2.4,3,2.4,3,5.2,5
2020/2/22 5:03,2.5,3,2.5,3,3.7,3
2020/2/22 5:04,2.6,3,2.6,3,4.3,4
2020/2/22 5:05,2.8,3,2.8,3,5.6,3
2020/2/22 5:06,2.9,3,2.9,3,4.2,3
2020/2/22 5:07,2.8,3,2.9,3,3,1
2020/2/22 5:08,2.9,3,2.9,3,4.4,2
2020/2/22 5:09,3,3,3,3,4.4,4
2020/2/22 5:10,2.9,3,3,3,3.6,2
2020/2/22 5:11,2.9,3,2.9,3,5,3
2020/2/22 5:12,3,3,3,3,4.8,4
2020/2/22 5:13,3,3,3,3,4.1,5
2020/2/22 5:14,3,3,3.1,3,3.9,3
2020/2/22 5:15,2.8,3,3,3,4.1,4
2020/2/22 5:16,2.8,3,2.8,3,4.4,3
2020/2/22 5:17,2.9,3,2.9,3,4.2,3
2020/2/22 5:18,2.8,3,2.9,3,2.7,4
2020/2/22 5:19,2.6,3,2.8,3,2.9,2
2020/2/22 5:20,2.5,3,2.6,3,3.8,1
2020/2/22 5:21,2.6,3,2.7,3,5.8,3
2020/2/22 5:22,2.6,3,2.7,3,5.4,5
2020/2/22 5:23,2.6,3,2.7,3,3.7,3
2020/2/22 5:24,2.6,3,2.6,3,2.7,4
2020/2/22 5:25,2.6,3,2.6,3,3.6,3
2020/2/22 5:26,2.6,3,2.6,3,4.3,3
2020/2/22 5:27,2.5,3,2.6,3,3,3
2020/2/22 5:28,2.6,3,2.6,3,3.7,4
2020/2/22 5:29,2.6,3,2.7,3,2.2,3
2020/2/22 5:30,2.6,3,2.6,3,2.2,3
2020/2/22 5:31,2.4,3,2.6,3,3.8,3
2020/2/22 5:32,2.3,3,2.4,3,3,3
2020/2/22 5:33,2.2,3,2.3,3,2.9,3
2020/2/22 5:34,2.2,3,2.2,3,3.7,4
2020/2/22 5:35,2.2,3,2.3,3,3.6,3
2020/2/22 5:36,2.2,3,2.2,3,2.7,3
2020/2/22 5:37,2.2,3,2.2,3,3.5,4
2020/2/22 5:38,2.1,3,2.2,3,2.7,3
2020/2/22 5:39,2.2,3,2.2,3,4.7,3
2020/2/22 5:40,2.3,3,2.3,3,3.9,3
2020/2/22 5:41,2.3,3,2.3,3,4.4,4
2020/2/22 5:42,2.3,3,2.3,3,4.2,3
2020/2/22 5:43,2.3,3,2.3,3,3.7,3
2020/2/22 5:44,2.3,3,2.4,3,3.9,2
2020/2/22 5:45,2.3,3,2.3,3,4.4,3
2020/2/22 5:46,2.3,3,2.3,3,3.5,4
2020/2/22 5:47,2.2,3,2.3,3,3.5,3
2020/2/22 5:48,2.3,3,2.3,3,3.8,1
2020/2/22 5:49,2.3,3,2.3,3,3.5,3
2020/2/22 5:50,2.3,3,2.3,3,4.1,3
2020/2/22 5:51,2.1,3,2.3,3,3.5,3
2020/2/22 5:52,2.2,3,2.2,3,3.8,3
2020/2/22 5:53,2.2,3,2.3,3,3.6,3
2020/2/22 5:54,2.2,3,2.2,3,3.2,4
2020/2/22 5:55,2.2,3,2.2,3,4.2,3
2020/2/22 5:56,2.4,3,2.4,3,5.4,3
2020/2/22 5:57,2.4,3,2.5,3,4.1,4
2020/2/22 5:58,2.4,3,2.4,3,2.7,5
2020/2/22 5:59,2.5,3,2.5,3,4.4,3
2020/2/22 6:00,2.6,3,2.6,3,4.7,3
2020/2/22 6:01,2.8,3,2.8,3,3.6,3
2020/2/22 6:02,2.8,3,2.8,3,3.5,3
2020/2/22 6:03,2.7,3,2.8,3,2.7,3
2020/2/22 6:04,2.7,3,2.7,3,3,4
2020/2/22 6:05,2.7,3,2.7,3,3,3
2020/2/22 6:06,2.5,3,2.7,3,3.9,3
2020/2/22 6:07,2.6,3,2.6,3,3.7,4
2020/2/22 6:08,2.5,3,2.5,3,3.6,3
2020/2/22 6:09,2.5,3,2.5,3,4.8,3
2020/2/22 6:10,2.5,3,2.5,3,5.7,3
2020/2/22 6:11,2.4,3,2.5,3,3.6,3
2020/2/22 6:12,2.3,3,2.4,3,3.9,3
2020/2/22 6:13,2.4,2,2.4,3,5,3
2020/2/22 6:14,2.4,2,2.4,3,4.7,3
2020/2/22 6:15,2.6,2,2.6,3,4.8,4
2020/2/22 6:16,2.7,2,2.7,2,5.1,4
2020/2/22 6:17,2.8,2,2.8,2,4.8,4
2020/2/22 6:18,2.9,3,2.9,3,4.7,2
2020/2/22 6:19,3,3,3,3,4.2,3
2020/2/22 6:20,2.8,3,2.9,3,3.5,3
2020/2/22 6:21,2.7,2,2.8,3,2.7,2
2020/2/22 6:22,2.8,2,2.8,3,3.3,2
2020/2/22 6:23,2.6,2,2.7,3,2.7,2
2020/2/22 6:24,2.5,3,2.7,3,2.2,2
2020/2/22 6:25,2.4,2,2.5,3,2.4,3
2020/2/22 6:26,2.4,2,2.4,3,5.2,3
2020/2/22 6:27,2.4,2,2.5,3,4.9,2
2020/2/22 6:28,2.4,2,2.4,3,4.4,3
2020/2/22 6:29,2.5,2,2.5,3,5.4,2
2020/2/22 6:30,2.6,2,2.6,3,4.4,2
2020/2/22 6:31,2.6,2,2.6,2,3.8,4
2020/2/22 6:32,2.6,2,2.6,2,3.8,2
2020/2/22 6:33,2.6,2,2.6,2,3.3,1
2020/2/22 6:34,2.6,2,2.6,2,3,2
2020/2/22 6:35,2.6,2,2.6,2,3.5,2
2020/2/22 6:36,2.5,2,2.6,2,3.8,1
2020/2/22 6:37,2.5,2,2.5,2,3.7,3
2020/2/22 6:38,2.4,2,2.5,2,4.2,1
2020/2/22 6:39,2.2,2,2.4,2,3.3,2
2020/2/22 6:40,2.2,2,2.2,2,3.1,1
2020/2/22 6:41,2.1,2,2.2,2,3.2,3
2020/2/22 6:42,2.2,2,2.2,2,3.7,2
2020/2/22 6:43,2.2,2,2.2,2,3.5,3
2020/2/22 6:44,2.2,2,2.2,2,3.5,3
2020/2/22 6:45,2.2,2,2.2,2,3.6,2
2020/2/22 6:46,2.2,2,2.2,2,4.3,2
2020/2/22 6:47,2.2,2,2.2,2,3.8,2
2020/2/22 6:48,2.3,2,2.3,2,4.5,3
2020/2/22 6:49,2.3,2,2.3,2,3.6,3
2020/2/22 6:50,2.2,2,2.3,2,3.3,2
2020/2/22 6:51,2.3,2,2.3,2,3.8,1
2020/2/22 6:52,2.2,2,2.3,2,3.1,2
2020/2/22 6:53,2.2,2,2.3,2,3.7,3
2020/2/22 6:54,2.2,2,2.2,2,3.6,2
2020/2/22 6:55,2.3,2,2.3,2,3.1,2
2020/2/22 6:56,2.2,2,2.3,2,3.6,2
2020/2/22 6:57,2.2,2,2.2,2,4.4,2
2020/2/22 6:58,2.1,2,2.2,2,4.2,3
2020/2/22 6:59,2.2,2,2.2,2,3.5,1
2020/2/22 7:00,2.3,2,2.3,2,4.8,2
2020/2/22 7:01,2.2,2,2.3,2,3.7,1
2020/2/22 7:02,2.2,2,2.2,2,2.7,16
2020/2/22 7:03,2.2,2,2.2,2,2.9,2
2020/2/22 7:04,2.2,2,2.2,2,3,2
2020/2/22 7:05,2.2,2,2.2,2,3.8,1
2020/2/22 7:06,2.3,2,2.3,2,4.2,2
2020/2/22 7:07,2.3,2,2.3,2,4.2,3
2020/2/22 7:08,2.3,2,2.3,2,4.1,1
2020/2/22 7:09,2.3,2,2.3,2,3.9,1
2020/2/22 7:10,2.2,2,2.3,2,3,2
2020/2/22 7:11,2.1,2,2.2,2,2.6,2
2020/2/22 7:12,2.2,2,2.2,2,3.5,1
2020/2/22 7:13,2.2,2,2.2,2,3.6,2
2020/2/22 7:14,2.1,2,2.2,2,2.7,2
2020/2/22 7:15,2.1,2,2.1,2,2.9,2
2020/2/22 7:16,2,2,2.1,2,3.2,1
2020/2/22 7:17,2,2,2,2,3.5,2
2020/2/22 7:18,2,2,2,2,3.8,3
2020/2/22 7:19,2,2,2,2,3.8,2
2020/2/22 7:20,2,2,2,2,4.1,3
2020/2/22 7:21,2.1,2,2.1,2,5.4,3
2020/2/22 7:22,2.1,2,2.1,2,3.7,2
2020/2/22 7:23,2.1,2,2.1,2,3.3,2
2020/2/22 7:24,2,2,2,2,2,1
2020/2/22 7:25,2,2,2,2,2.6,1
2020/2/22 7:26,2,2,2.1,2,3.3,16
2020/2/22 7:27,2,2,2,2,3.1,1
2020/2/22 7:28,2,2,2,2,3.6,2
2020/2/22 7:29,1.9,2,2,2,3.6,3
2020/2/22 7:30,2,2,2,2,3.5,2
2020/2/22 7:31,1.9,2,2,2,3.3,2
2020/2/22 7:32,1.9,2,1.9,2,3.6,1
2020/2/22 7:33,1.9,2,1.9,2,3,2
2020/2/22 7:34,2,2,2,2,2.5,2
2020/2/22 7:35,2,2,2,2,3,2
2020/2/22 7:36,1.9,2,1.9,2,3.1,1
2020/2/22 7:37,2,2,2,2,3.8,2
2020/2/22 7:38,2,2,2.1,2,3.8,2
2020/2/22 7:39,2.1,2,2.1,2,3.7,1
2020/2/22 7:40,2.1,2,2.1,2,4.2,1
2020/2/22 7:41,2.1,2,2.1,2,3.3,3
2020/2/22 7:42,2.1,2,2.1,2,3.1,3
2020/2/22 7:43,2,2,2.1,2,3.7,1
2020/2/22 7:44,2.1,2,2.1,2,3,2
2020/2/22 7:45,2,2,2.1,2,2.6,3
2020/2/22 7:46,2,2,2,2,2.2,3
2020/2/22 7:47,1.9,2,2,2,2.1,1
2020/2/22 7:48,1.8,2,1.9,2,2.5,1
2020/2/22 7:49,1.8,2,1.8,2,3,2
2020/2/22 7:50,1.7,2,1.8,2,4.1,1
2020/2/22 7:51,1.8,2,1.8,2,3.2,2
2020/2/22 7:52,1.7,2,1.8,2,1.9,2
2020/2/22 7:53,1.7,2,1.7,2,2.4,2
2020/2/22 7:54,1.7,2,1.7,2,2.2,1
2020/2/22 7:55,1.8,2,1.8,2,3.3,1
2020/2/22 7:56,1.7,2,1.8,2,3.3,2
2020/2/22 7:57,1.8,2,1.8,2,2.7,2
2020/2/22 7:58,1.8,2,1.8,2,2.6,16
2020/2/22 7:59,1.8,2,1.8,2,3.3,1
2020/2/22 8:00,1.9,2,1.9,2,3.5,2
2020/2/22 8:01,1.8,2,1.8,2,3,3
2020/2/22 8:02,2,2,2,2,3.7,2
2020/2/22 8:03,2,2,2,2,3,1
2020/2/22 8:04,2,2,2.1,2,3.2,2
2020/2/22 8:05,2,2,2,2,2.4,3
2020/2/22 8:06,2,2,2,2,2.9,2
2020/2/22 8:07,2.1,2,2.1,2,3,2
2020/2/22 8:08,2.2,2,2.2,2,5.5,1
2020/2/22 8:09,2.2,2,2.2,2,6,1
2020/2/22 8:10,2.2,2,2.2,2,4.1,2
2020/2/22 8:11,2.3,2,2.3,2,3.9,3
2020/2/22 8:12,2.2,2,2.3,2,3.5,2
2020/2/22 8:13,2.2,2,2.2,2,2.7,2
2020/2/22 8:14,2.2,2,2.2,2,4.1,3
2020/2/22 8:15,2.2,2,2.3,2,2.6,2
2020/2/22 8:16,2.2,2,2.2,2,2.4,1
2020/2/22 8:17,2.2,2,2.2,2,3.2,3
2020/2/22 8:18,2.1,2,2.2,2,4.8,2
2020/2/22 8:19,2.1,2,2.1,2,5.4,2
2020/2/22 8:20,2,2,2.1,2,3.5,2
2020/2/22 8:21,2,2,2,2,3.7,1
2020/2/22 8:22,2.1,2,2.1,2,4.3,2
2020/2/22 8:23,2.2,2,2.2,2,3.5,2
2020/2/22 8:24,2.2,2,2.2,2,2.9,2
2020/2/22 8:25,2.3,2,2.3,2,4.9,2
2020/2/22 8:26,2.5,2,2.5,2,6.2,1
2020/2/22 8:27,2.5,2,2.5,2,4.4,1
2020/2/22 8:28,2.4,2,2.5,2,3.5,2
2020/2/22 8:29,2.4,2,2.4,2,3.3,3
2020/2/22 8:30,2.5,2,2.5,2,4.1,2
2020/2/22 8:31,2.4,2,2.5,2,3.3,2
2020/2/22 8:32,2.4,2,2.4,2,4.4,2
2020/2/22 8:33,2.3,2,2.3,2,2.5,3
2020/2/22 8:34,2.3,2,2.3,2,3.1,3
2020/2/22 8:35,2.2,2,2.3,2,3.2,4
2020/2/22 8:36,2.2,2,2.2,2,5.5,3
2020/2/22 8:37,2.3,2,2.3,2,3.6,1
2020/2/22 8:38,2.3,2,2.3,2,3.3,1
2020/2/22 8:39,2.2,2,2.3,2,3.7,2
2020/2/22 8:40,2.3,2,2.3,2,4.3,2
2020/2/22 8:41,2.4,2,2.4,2,4.5,1
2020/2/22 8:42,2.4,2,2.4,2,3.8,1
2020/2/22 8:43,2.5,2,2.5,2,3.3,2
2020/2/22 8:44,2.5,2,2.6,2,4.2,1
2020/2/22 8:45,2.4,2,2.5,2,3,1
2020/2/22 8:46,2.3,2,2.4,2,2.1,1
2020/2/22 8:47,2.1,2,2.2,2,2,2
2020/2/22 8:48,2.1,2,2.1,2,2.2,3
2020/2/22 8:49,2.1,2,2.1,2,3.8,3
2020/2/22 8:50,2,2,2.1,2,4.1,2
2020/2/22 8:51,1.9,2,2,2,3.3,3
2020/2/22 8:52,1.9,2,1.9,2,3.5,2
2020/2/22 8:53,1.9,2,1.9,2,3.5,3
2020/2/22 8:54,1.8,2,1.9,2,2.4,2
2020/2/22 8:55,1.8,2,1.8,2,2.2,3
2020/2/22 8:56,1.8,2,1.8,2,2.4,3
2020/2/22 8:57,1.8,2,1.8,2,3.1,4
2020/2/22 8:58,1.8,2,1.8,2,2,16
2020/2/22 8:59,1.7,2,1.8,2,2.6,1
2020/2/22 9:00,1.7,2,1.7,2,2.7,2
2020/2/22 9:01,1.7,2,1.7,2,2.5,1
2020/2/22 9:02,1.5,2,1.7,2,1.9,15
2020/2/22 9:03,1.4,2,1.5,2,1.6,16
2020/2/22 9:04,1.3,1,1.4,2,0.8,15
2020/2/22 9:05,1.2,1,1.3,2,0.6,16
2020/2/22 9:06,1,1,1.2,2,0.3,15
2020/2/22 9:07,0.9,1,1,2,0.9,1
2020/2/22 9:08,0.9,1,0.9,2,1.1,3
2020/2/22 9:09,0.8,1,0.9,2,1,3
2020/2/22 9:10,0.7,1,0.8,2,1.5,3
2020/2/22 9:11,0.7,1,0.7,2,2.4,3
2020/2/22 9:12,0.8,2,0.8,2,2.6,3
2020/2/22 9:13,0.8,2,0.8,2,1.8,1
2020/2/22 9:14,0.9,2,0.9,1,1.8,1
2020/2/22 9:15,1,2,1,1,1.5,16
2020/2/22 9:16,1.1,2,1.1,2,2.5,16
2020/2/22 9:17,1.2,2,1.2,2,2.6,16
2020/2/22 9:18,1.3,1,1.3,2,1.9,16
2020/2/22 9:19,1.4,1,1.4,1,2.2,15
2020/2/22 9:20,1.4,1,1.4,1,2.2,1
2020/2/22 9:21,1.4,1,1.4,1,2,1
2020/2/22 9:22,1.4,1,1.4,1,2.2,2
2020/2/22 9:23,1.5,1,1.5,1,2.9,3
2020/2/22 9:24,1.5,1,1.5,1,2.7,3
2020/2/22 9:25,1.7,1,1.7,1,2.6,3
2020/2/22 9:26,1.8,2,1.8,2,2.9,3
2020/2/22 9:27,1.7,2,1.8,2,2.5,3
2020/2/22 9:28,1.7,2,1.7,2,2.1,2
2020/2/22 9:29,1.7,2,1.7,2,2.5,1
2020/2/22 9:30,1.6,2,1.7,2,1.5,3
2020/2/22 9:31,1.7,2,1.7,2,2.9,3
2020/2/22 9:32,1.6,3,1.7,2,2.4,4
2020/2/22 9:33,1.5,2,1.6,2,1.5,3
2020/2/22 9:34,1.4,2,1.5,2,1,2
2020/2/22 9:35,1.2,2,1.3,2,0.6,16
2020/2/22 9:36,0.9,2,1.1,2,0.1,15
2020/2/22 9:37,0.8,2,0.9,2,0.8,2
2020/2/22 9:38,0.8,2,0.8,2,1.3,16
2020/2/22 9:39,0.7,2,0.8,2,1.4,1
2020/2/22 9:40,0.8,2,0.8,2,2.1,16
2020/2/22 9:41,0.7,2,0.8,2,2.1,1
2020/2/22 9:42,0.7,2,0.7,2,1.8,3
2020/2/22 9:43,0.8,2,0.8,2,1.8,4
2020/2/22 9:44,0.8,2,0.8,2,1.8,3
2020/2/22 9:45,0.8,2,0.8,2,1.6,2
2020/2/22 9:46,0.9,2,0.9,2,1.8,2
2020/2/22 9:47,1,2,1,2,1.3,2
2020/2/22 9:48,1.1,2,1.1,2,2.5,3
2020/2/22 9:49,1.1,2,1.1,2,1.9,3
2020/2/22 9:50,1.1,2,1.2,2,2,2
2020/2/22 9:51,1,2,1,2,1.9,15
2020/2/22 9:52,1,2,1,2,2.2,15
2020/2/22 9:53,1,2,1,2,1.8,16
2020/2/22 9:54,1,1,1,2,1.8,14
2020/2/22 9:55,1.1,1,1.1,2,1.9,13
2020/2/22 9:56,1.1,16,1.1,2,2.1,12
2020/2/22 9:57,1.3,15,1.3,15,3.1,10
2020/2/22 9:58,1.4,14,1.4,15,3.5,11
2020/2/22 9:59,1.4,13,1.4,15,2.5,11
2020/2/22 10:00,1.4,13,1.4,15,1.6,12
2020/2/22 10:01,1.4,13,1.4,15,1.4,13
2020/2/22 10:02,1.4,12,1.4,15,1.4,12
2020/2/22 10:03,1.3,12,1.4,15,0.9,12
2020/2/22 10:04,1.3,12,1.3,15,1.1,10
2020/2/22 10:05,1.2,12,1.3,15,1,10
2020/2/22 10:06,1.1,12,1.2,15,0.8,10
2020/2/22 10:07,0.9,12,1.1,15,0.8,5
2020/2/22 10:08,0.6,12,0.8,14,0.9,5
2020/2/22 10:09,0.5,12,0.6,13,0.3,15
2020/2/22 10:10,0.4,13,0.4,13,0.3,16
2020/2/22 10:11,0.3,13,0.4,13,0.1,14
2020/2/22 10:12,0.2,14,0.3,12,0.1,2
2020/2/22 10:13,0.2,16,0.2,12,0.1,2
2020/2/22 10:14,0.2,2,0.2,12,1,5
2020/2/22 10:15,0.2,3,0.2,12,1,5
2020/2/22 10:16,0.2,4,0.2,12,0.5,6
2020/2/22 10:17,0.2,3,0.2,12,0.5,3
2020/2/22 10:18,0.2,3,0.2,12,0.8,2
2020/2/22 10:19,0.2,3,0.2,12,0.4,2
2020/2/22 10:20,0.2,3,0.2,13,0.1,14
2020/2/22 10:21,0.2,2,0.2,13,0.1,15
2020/2/22 10:22,0.2,2,0.2,14,0.1,12
2020/2/22 10:23,0.3,2,0.3,2,1.4,8
2020/2/22 10:24,0.3,2,0.3,2,1,8
2020/2/22 10:25,0.2,2,0.2,2,1.3,1
2020/2/22 10:26,0.3,1,0.3,2,1.5,2
2020/2/22 10:27,0.4,1,0.4,1,1.6,1
2020/2/22 10:28,0.6,16,0.6,16,2.1,16
2020/2/22 10:29,0.7,16,0.7,16,2,16
2020/2/22 10:30,0.9,1,0.9,1,2,16
2020/2/22 10:31,1,1,1,1,2,1
2020/2/22 10:32,1.2,1,1.2,1,2.1,1
2020/2/22 10:33,1.3,1,1.3,1,2.9,16
2020/2/22 10:34,1.3,1,1.3,1,1.6,1
2020/2/22 10:35,1.4,16,1.4,1,1.8,13
2020/2/22 10:36,1.4,16,1.4,1,1.1,10
2020/2/22 10:37,1.3,16,1.4,1,1.1,10
2020/2/22 10:38,1.2,16,1.3,1,1.5,7
2020/2/22 10:39,1.1,15,1.2,1,1.3,7
2020/2/22 10:40,1.1,15,1.1,1,1.9,7
2020/2/22 10:41,1,8,1,1,1.3,6
2020/2/22 10:42,0.8,8,0.9,1,1.1,11
2020/2/22 10:43,0.8,9,0.8,1,1.6,11
2020/2/22 10:44,0.7,9,0.8,1,1.5,10
2020/2/22 10:45,0.7,8,0.7,16,1.4,9
2020/2/22 10:46,0.7,8,0.7,16,2.1,8
2020/2/22 10:47,0.7,9,0.7,16,0.8,12
2020/2/22 10:48,0.7,9,0.7,16,1,4
2020/2/22 10:49,0.6,8,0.7,15,0.8,6
2020/2/22 10:50,0.6,9,0.7,14,1.5,8
2020/2/22 10:51,0.6,10,0.6,8,1.8,10
2020/2/22 10:52,0.7,10,0.7,8,3.2,10
2020/2/22 10:53,0.7,10,0.7,9,2.5,10
2020/2/22 10:54,0.7,10,0.7,9,1.1,12
2020/2/22 10:55,0.7,10,0.7,8,1.5,5
2020/2/22 10:56,0.7,10,0.7,8,1.9,6
2020/2/22 10:57,0.7,9,0.7,9,1.4,7
2020/2/22 10:58,0.8,10,0.8,9,1.5,9
2020/2/22 10:59,1,10,1,10,3.9,9
2020/2/22 11:00,1.1,10,1.1,10,3.2,9
2020/2/22 11:01,1.1,10,1.2,10,1.4,10
2020/2/22 11:02,1.1,10,1.1,10,1.6,1
2020/2/22 11:03,1,10,1.1,10,1.5,1
2020/2/22 11:04,1.1,10,1.1,10,1.6,16
2020/2/22 11:05,1.1,11,1.1,10,0.9,16
2020/2/22 11:06,1,12,1.1,10,1.3,11
2020/2/22 11:07,1,12,1,10,2.4,9
2020/2/22 11:08,1,12,1,10,1.9,10
2020/2/22 11:09,0.8,13,1,10,0.9,13
2020/2/22 11:10,0.6,14,0.8,10,0.6,1
2020/2/22 11:11,0.6,15,0.6,10,0.9,1
2020/2/22 11:12,0.6,15,0.6,10,0.3,1
2020/2/22 11:13,0.5,14,0.6,10,1.3,6
2020/2/22 11:14,0.5,16,0.5,10,1.3,6
2020/2/22 11:15,0.6,4,0.6,11,1.5,4
2020/2/22 11:16,0.6,4,0.6,12,1.1,4
2020/2/22 11:17,0.5,4,0.6,12,0.5,14
2020/2/22 11:18,0.4,4,0.5,12,0.3,10
2020/2/22 11:19,0.4,5,0.4,13,1,11
2020/2/22 11:20,0.5,6,0.5,14,0.8,10
2020/2/22 11:21,0.4,7,0.5,15,0.3,11
2020/2/22 11:22,0.5,7,0.5,15,0.8,16
2020/2/22 11:23,0.4,6,0.5,3,0.9,1
2020/2/22 11:24,0.4,4,0.4,3,1.1,3
2020/2/22 11:25,0.4,2,0.4,4,1.5,3
2020/2/22 11:26,0.4,16,0.4,4,1.8,16
2020/2/22 11:27,0.5,1,0.5,4,1.8,2
2020/2/22 11:28,0.5,1,0.5,5,1,12
2020/2/22 11:29,0.8,1,0.8,1,5.1,10
2020/2/22 11:30,1,1,1,1,4.3,9
2020/2/22 11:31,1.3,3,1.3,3,3.9,8
2020/2/22 11:32,1.4,4,1.4,3,2,6
2020/2/22 11:33,1.5,4,1.5,4,2,5
2020/2/22 11:34,1.5,4,1.5,4,2.9,16
2020/2/22 11:35,1.6,3,1.6,4,2.7,16
2020/2/22 11:36,1.6,9,1.6,4,2.1,13
2020/2/22 11:37,1.8,10,1.8,10,5.1,8
2020/2/22 11:38,1.9,9,1.9,9,4.8,9
2020/2/22 11:39,1.7,9,1.9,9,2.1,10
2020/2/22 11:40,1.5,6,1.6,9,1.5,2
2020/2/22 11:41,1.4,1,1.5,9,2.7,16
2020/2/22 11:42,1.3,15,1.4,9,2,1
2020/2/22 11:43,1.6,15,1.6,9,5,16
2020/2/22 11:44,1.7,15,1.7,9,3.9,16
2020/2/22 11:45,1.6,15,1.7,9,2.2,16